JCSAT 2A

Last updated on Jan. 18, 2020, 4:38 a.m. UTC

1 27399U 02015A   20017.54139050 -.00000363  00000-0  00000-0 0  9998
2 27399   2.5560  86.4716 0002221 162.0664 188.4966  1.00143775 65409
UTC
Height (km)
Latitude
Longitude
Inclination
Orbital Period
UTC large
Height (km)
Speed (km/s)
/
Latitude / Longitude
Inclination (degrees)
Orbital Period (minutes)
Azimuth
Elevation
Range (km)
Doppler Factor
iOS Compass Heading
iOS Angle

Next 30 passes for location: Hong Kong

Rise time Rise Azimuth (degrees) Set time Set Azimuth (degrees) Duration Max altitude (degrees)

No matching passes for this satellites